Year,Month,Day,Hour,Minute,Value (Times are PST for temperature in C)
2010,07,23,00,00,16.40
2010,07,23,00,01,16.40
2010,07,23,00,02,16.40
2010,07,23,00,03,16.40
2010,07,23,00,04,16.30
2010,07,23,00,05,16.30
2010,07,23,00,06,16.30
2010,07,23,00,07,16.30
2010,07,23,00,08,16.30
2010,07,23,00,09,16.30
2010,07,23,00,10,16.30
2010,07,23,00,11,16.30
2010,07,23,00,12,16.20
2010,07,23,00,13,16.20
2010,07,23,00,14,16.20
2010,07,23,00,15,16.20
2010,07,23,00,16,16.20
2010,07,23,00,17,16.20
2010,07,23,00,18,16.20
2010,07,23,00,19,16.20
2010,07,23,00,20,16.20
2010,07,23,00,21,16.10
2010,07,23,00,22,16.10
2010,07,23,00,23,16.10
2010,07,23,00,24,16.10
2010,07,23,00,25,16.10
2010,07,23,00,26,16.10
2010,07,23,00,27,16.10
2010,07,23,00,28,16.00
2010,07,23,00,29,16.00
2010,07,23,00,30,16.00
2010,07,23,00,31,16.00
2010,07,23,00,32,15.90
2010,07,23,00,33,15.90
2010,07,23,00,34,15.90
2010,07,23,00,35,15.90
2010,07,23,00,36,15.90
2010,07,23,00,37,15.90
2010,07,23,00,38,15.90
2010,07,23,00,39,15.90
2010,07,23,00,40,15.80
2010,07,23,00,41,15.80
2010,07,23,00,42,15.80
2010,07,23,00,43,15.80
2010,07,23,00,44,15.80
2010,07,23,00,45,15.70
2010,07,23,00,46,15.70
2010,07,23,00,47,15.60
2010,07,23,00,48,15.60
2010,07,23,00,49,15.50
2010,07,23,00,50,15.50
2010,07,23,00,51,15.50
2010,07,23,00,52,15.40
2010,07,23,00,53,15.40
2010,07,23,00,54,15.40
2010,07,23,00,55,15.40
2010,07,23,00,56,15.40
2010,07,23,00,57,15.40
2010,07,23,00,58,15.30
2010,07,23,00,59,15.30
2010,07,23,01,00,15.30
2010,07,23,01,01,15.40
2010,07,23,01,02,15.40
2010,07,23,01,03,15.40
2010,07,23,01,04,15.40
2010,07,23,01,05,15.40
2010,07,23,01,06,15.40
2010,07,23,01,07,15.30
2010,07,23,01,08,15.30
2010,07,23,01,09,15.30
2010,07,23,01,10,15.30
2010,07,23,01,11,15.30
2010,07,23,01,12,15.30
2010,07,23,01,13,15.30
2010,07,23,01,14,15.30
2010,07,23,01,15,15.20
2010,07,23,01,16,15.20
2010,07,23,01,17,15.20
2010,07,23,01,18,15.20
2010,07,23,01,19,15.20
2010,07,23,01,20,15.10
2010,07,23,01,21,15.10
2010,07,23,01,22,15.00
2010,07,23,01,23,15.00
2010,07,23,01,24,15.00
2010,07,23,01,25,15.00
2010,07,23,01,26,15.00
2010,07,23,01,27,15.00
2010,07,23,01,28,15.10
2010,07,23,01,29,15.10
2010,07,23,01,30,15.10
2010,07,23,01,31,15.10
2010,07,23,01,32,15.10
2010,07,23,01,33,15.20
2010,07,23,01,34,15.20
2010,07,23,01,35,15.20
2010,07,23,01,36,15.20
2010,07,23,01,37,15.20
2010,07,23,01,38,15.20
2010,07,23,01,39,15.20
2010,07,23,01,40,15.20
2010,07,23,01,41,15.20
2010,07,23,01,42,15.10
2010,07,23,01,43,15.00
2010,07,23,01,44,15.00
2010,07,23,01,45,15.00
2010,07,23,01,46,15.00
2010,07,23,01,47,15.00
2010,07,23,01,48,15.00
2010,07,23,01,49,15.00
2010,07,23,01,50,15.00
2010,07,23,01,51,15.00
2010,07,23,01,52,15.00
2010,07,23,01,53,14.90
2010,07,23,01,54,14.90
2010,07,23,01,55,14.90
2010,07,23,01,56,14.90
2010,07,23,01,57,14.80
2010,07,23,01,58,14.80
2010,07,23,01,59,14.80
2010,07,23,02,00,14.80
2010,07,23,02,01,14.80
2010,07,23,02,02,14.70
2010,07,23,02,03,14.70
2010,07,23,02,04,14.70
2010,07,23,02,05,14.70
2010,07,23,02,06,14.70
2010,07,23,02,07,14.70
2010,07,23,02,08,14.70
2010,07,23,02,09,14.70
2010,07,23,02,10,14.70
2010,07,23,02,11,14.70
2010,07,23,02,12,14.70
2010,07,23,02,13,14.70
2010,07,23,02,14,14.70
2010,07,23,02,15,14.70
2010,07,23,02,16,14.70
2010,07,23,02,17,14.60
2010,07,23,02,18,14.60
2010,07,23,02,19,14.60
2010,07,23,02,20,14.60
2010,07,23,02,21,14.60
2010,07,23,02,22,14.60
2010,07,23,02,23,14.60
2010,07,23,02,24,14.50
2010,07,23,02,25,14.50
2010,07,23,02,26,14.50
2010,07,23,02,27,14.40
2010,07,23,02,28,14.40
2010,07,23,02,29,14.40
2010,07,23,02,30,14.40
2010,07,23,02,31,14.40
2010,07,23,02,32,14.40
2010,07,23,02,33,14.40
2010,07,23,02,34,14.40
2010,07,23,02,35,14.30
2010,07,23,02,36,14.30
2010,07,23,02,37,14.20
2010,07,23,02,38,14.20
2010,07,23,02,39,14.10
2010,07,23,02,40,14.10
2010,07,23,02,41,14.10
2010,07,23,02,42,14.10
2010,07,23,02,43,14.00
2010,07,23,02,44,14.00
2010,07,23,02,45,14.00
2010,07,23,02,46,14.00
2010,07,23,02,47,14.00
2010,07,23,02,48,14.00
2010,07,23,02,49,13.90
2010,07,23,02,50,13.90
2010,07,23,02,51,13.90
2010,07,23,02,52,13.90
2010,07,23,02,53,13.80
2010,07,23,02,54,13.80
2010,07,23,02,55,13.80
2010,07,23,02,56,13.80
2010,07,23,02,57,13.80
2010,07,23,02,58,13.80
2010,07,23,02,59,13.80
2010,07,23,03,00,13.80
2010,07,23,03,01,13.90
2010,07,23,03,02,13.90
2010,07,23,03,03,13.90
2010,07,23,03,04,13.90
2010,07,23,03,05,13.90
2010,07,23,03,06,13.90
2010,07,23,03,07,13.90
2010,07,23,03,08,13.90
2010,07,23,03,09,13.90
2010,07,23,03,10,13.90
2010,07,23,03,11,13.90
2010,07,23,03,12,13.90
2010,07,23,03,13,13.80
2010,07,23,03,14,13.80
2010,07,23,03,15,13.80
2010,07,23,03,16,13.80
2010,07,23,03,17,13.80
2010,07,23,03,18,13.80
2010,07,23,03,19,13.80
2010,07,23,03,20,13.80
2010,07,23,03,21,13.80
2010,07,23,03,22,13.80
2010,07,23,03,23,13.80
2010,07,23,03,24,13.80
2010,07,23,03,25,13.80
2010,07,23,03,26,13.80
2010,07,23,03,27,13.80
2010,07,23,03,28,13.80
2010,07,23,03,29,13.80
2010,07,23,03,30,13.70
2010,07,23,03,31,13.70
2010,07,23,03,32,13.70
2010,07,23,03,33,13.60
2010,07,23,03,34,13.60
2010,07,23,03,35,13.60
2010,07,23,03,36,13.60
2010,07,23,03,37,13.50
2010,07,23,03,38,13.50
2010,07,23,03,39,13.50
2010,07,23,03,40,13.50
2010,07,23,03,41,13.40
2010,07,23,03,42,13.40
2010,07,23,03,43,13.40
2010,07,23,03,44,13.40
2010,07,23,03,45,13.40
2010,07,23,03,46,13.40
2010,07,23,03,47,13.40
2010,07,23,03,48,13.40
2010,07,23,03,49,13.40
2010,07,23,03,50,13.50
2010,07,23,03,51,13.50
2010,07,23,03,52,13.50
2010,07,23,03,53,13.60
2010,07,23,03,54,13.60
2010,07,23,03,55,13.60
2010,07,23,03,56,13.50
2010,07,23,03,57,13.50
2010,07,23,03,58,13.50
2010,07,23,03,59,13.50
2010,07,23,04,00,13.50
2010,07,23,04,01,13.40
2010,07,23,04,02,13.40
2010,07,23,04,03,13.40
2010,07,23,04,04,13.40
2010,07,23,04,05,13.30
2010,07,23,04,06,13.30
2010,07,23,04,07,13.30
2010,07,23,04,08,13.30
2010,07,23,04,09,13.30
2010,07,23,04,10,13.20
2010,07,23,04,11,13.20
2010,07,23,04,12,13.20
2010,07,23,04,13,13.20
2010,07,23,04,14,13.20
2010,07,23,04,15,13.10
2010,07,23,04,16,13.10
2010,07,23,04,17,13.10
2010,07,23,04,18,13.00
2010,07,23,04,19,13.00
2010,07,23,04,20,12.90
2010,07,23,04,21,12.90
2010,07,23,04,22,12.90
2010,07,23,04,23,12.80
2010,07,23,04,24,12.80
2010,07,23,04,25,12.80
2010,07,23,04,26,12.80
2010,07,23,04,27,12.70
2010,07,23,04,28,12.70
2010,07,23,04,29,12.70
2010,07,23,04,30,12.70
2010,07,23,04,31,12.60
2010,07,23,04,32,12.60
2010,07,23,04,33,12.60
2010,07,23,04,34,12.60
2010,07,23,04,35,12.60
2010,07,23,04,36,12.50
2010,07,23,04,37,12.50
2010,07,23,04,38,12.50
2010,07,23,04,39,12.40
2010,07,23,04,40,12.40
2010,07,23,04,41,12.40
2010,07,23,04,42,12.40
2010,07,23,04,43,12.30
2010,07,23,04,44,12.30
2010,07,23,04,45,12.30
2010,07,23,04,46,12.30
2010,07,23,04,47,12.30
2010,07,23,04,48,12.30
2010,07,23,04,49,12.20
2010,07,23,04,50,12.20
2010,07,23,04,51,12.20
2010,07,23,04,52,12.20
2010,07,23,04,53,12.20
2010,07,23,04,54,12.10
2010,07,23,04,55,12.10
2010,07,23,04,56,12.10
2010,07,23,04,57,12.10
2010,07,23,04,58,12.10
2010,07,23,04,59,12.10
2010,07,23,05,00,12.10
2010,07,23,05,01,12.10
2010,07,23,05,02,12.10
2010,07,23,05,03,12.10
2010,07,23,05,04,12.20
2010,07,23,05,05,12.20
2010,07,23,05,06,12.20
2010,07,23,05,07,12.30
2010,07,23,05,08,12.30
2010,07,23,05,09,12.30
2010,07,23,05,10,12.30
2010,07,23,05,11,12.30
2010,07,23,05,12,12.40
2010,07,23,05,13,12.40
2010,07,23,05,14,12.40
2010,07,23,05,15,12.40
2010,07,23,05,16,12.50
2010,07,23,05,17,12.50
2010,07,23,05,18,12.60
2010,07,23,05,19,12.60
2010,07,23,05,20,12.70
2010,07,23,05,21,12.70
2010,07,23,05,22,12.70
2010,07,23,05,23,12.80
2010,07,23,05,24,12.80
2010,07,23,05,25,12.80
2010,07,23,05,26,12.90
2010,07,23,05,27,12.90
2010,07,23,05,28,12.90
2010,07,23,05,29,12.90
2010,07,23,05,30,12.90
2010,07,23,05,31,12.90
2010,07,23,05,32,12.90
2010,07,23,05,33,12.90
2010,07,23,05,34,12.90
2010,07,23,05,35,12.90
2010,07,23,05,36,12.90
2010,07,23,05,37,12.90
2010,07,23,05,38,12.90
2010,07,23,05,39,12.90
2010,07,23,05,40,12.80
2010,07,23,05,41,12.80
2010,07,23,05,42,12.80
2010,07,23,05,43,12.80
2010,07,23,05,44,12.80
2010,07,23,05,45,12.80
2010,07,23,05,46,12.80
2010,07,23,05,47,12.80
2010,07,23,05,48,12.80
2010,07,23,05,49,12.80
2010,07,23,05,50,12.80
2010,07,23,05,51,12.80
2010,07,23,05,52,12.80
2010,07,23,05,53,12.80
2010,07,23,05,54,12.80
2010,07,23,05,55,12.80
2010,07,23,05,56,12.80
2010,07,23,05,57,12.80
2010,07,23,05,58,12.80
2010,07,23,05,59,12.90
2010,07,23,06,00,12.90
2010,07,23,06,01,12.90
2010,07,23,06,02,12.90
2010,07,23,06,03,12.90
2010,07,23,06,04,13.00
2010,07,23,06,05,13.00
2010,07,23,06,06,13.00
2010,07,23,06,07,13.10
2010,07,23,06,08,13.10
2010,07,23,06,09,13.10
2010,07,23,06,10,13.10
2010,07,23,06,11,13.20
2010,07,23,06,12,13.20
2010,07,23,06,13,13.20
2010,07,23,06,14,13.20
2010,07,23,06,15,13.20
2010,07,23,06,16,13.20
2010,07,23,06,17,13.20
2010,07,23,06,18,13.20
2010,07,23,06,19,13.20
2010,07,23,06,20,13.30
2010,07,23,06,21,13.30
2010,07,23,06,22,13.30
2010,07,23,06,23,13.30
2010,07,23,06,24,13.30
2010,07,23,06,25,13.40
2010,07,23,06,26,13.40
2010,07,23,06,27,13.40
2010,07,23,06,28,13.40
2010,07,23,06,29,13.40
2010,07,23,06,30,13.50
2010,07,23,06,31,13.50
2010,07,23,06,32,13.50
2010,07,23,06,33,13.50
2010,07,23,06,34,13.60
2010,07,23,06,35,13.60
2010,07,23,06,36,13.60
2010,07,23,06,37,13.60
2010,07,23,06,38,13.60
2010,07,23,06,39,13.70
2010,07,23,06,40,13.70
2010,07,23,06,41,13.70
2010,07,23,06,42,13.80
2010,07,23,06,43,13.80
2010,07,23,06,44,13.80
2010,07,23,06,45,13.80
2010,07,23,06,46,13.90
2010,07,23,06,47,13.90
2010,07,23,06,48,13.90
2010,07,23,06,49,13.90
2010,07,23,06,50,14.00
2010,07,23,06,51,14.00
2010,07,23,06,52,14.10
2010,07,23,06,53,14.10
2010,07,23,06,54,14.10
2010,07,23,06,55,14.10
2010,07,23,06,56,14.20
2010,07,23,06,57,14.20
2010,07,23,06,58,14.20
2010,07,23,06,59,14.30
2010,07,23,07,00,14.30
2010,07,23,07,01,14.30
2010,07,23,07,02,14.40
2010,07,23,07,03,14.40
2010,07,23,07,04,14.40
2010,07,23,07,05,14.50
2010,07,23,07,06,14.50
2010,07,23,07,07,14.60
2010,07,23,07,08,14.60
2010,07,23,07,09,14.60
2010,07,23,07,10,14.70
2010,07,23,07,11,14.70
2010,07,23,07,12,14.70
2010,07,23,07,13,14.80
2010,07,23,07,14,14.80
2010,07,23,07,15,14.80
2010,07,23,07,16,14.90
2010,07,23,07,17,14.90
2010,07,23,07,18,14.90
2010,07,23,07,19,14.90
2010,07,23,07,20,14.90
2010,07,23,07,21,14.90
2010,07,23,07,22,15.00
2010,07,23,07,23,15.00
2010,07,23,07,24,15.00
2010,07,23,07,25,15.00
2010,07,23,07,26,15.00
2010,07,23,07,27,15.00
2010,07,23,07,28,15.00
2010,07,23,07,29,15.00
2010,07,23,07,30,15.00
2010,07,23,07,31,15.00
2010,07,23,07,32,15.10
2010,07,23,07,33,15.10
2010,07,23,07,34,15.20
2010,07,23,07,35,15.20
2010,07,23,07,36,15.20
2010,07,23,07,37,15.20
2010,07,23,07,38,15.20
2010,07,23,07,39,15.30
2010,07,23,07,40,15.30
2010,07,23,07,41,15.30
2010,07,23,07,42,15.30
2010,07,23,07,43,15.30
2010,07,23,07,44,15.30
2010,07,23,07,45,15.30
2010,07,23,07,46,15.30
2010,07,23,07,47,15.40
2010,07,23,07,48,15.40
2010,07,23,07,49,15.50
2010,07,23,07,50,15.50
2010,07,23,07,51,15.50
2010,07,23,07,52,15.60
2010,07,23,07,53,15.60
2010,07,23,07,54,15.60
2010,07,23,07,55,15.60
2010,07,23,07,56,15.60
2010,07,23,07,57,15.70
2010,07,23,07,58,15.70
2010,07,23,07,59,15.70
2010,07,23,08,00,15.70
2010,07,23,08,01,15.60
2010,07,23,08,02,15.60
2010,07,23,08,03,15.60
2010,07,23,08,04,15.60
2010,07,23,08,05,15.60
2010,07,23,08,06,15.60
2010,07,23,08,07,15.60
2010,07,23,08,08,15.60
2010,07,23,08,09,15.60
2010,07,23,08,10,15.60
2010,07,23,08,11,15.70
2010,07,23,08,12,15.70
2010,07,23,08,13,15.70
2010,07,23,08,14,15.70
2010,07,23,08,15,15.70
2010,07,23,08,16,15.80
2010,07,23,08,17,15.80
2010,07,23,08,18,15.80
2010,07,23,08,19,15.80
2010,07,23,08,20,15.90
2010,07,23,08,21,15.90
2010,07,23,08,22,15.90
2010,07,23,08,23,15.90
2010,07,23,08,24,15.90
2010,07,23,08,25,15.90
2010,07,23,08,26,15.90
2010,07,23,08,27,15.90
2010,07,23,08,28,15.90
2010,07,23,08,29,15.90
2010,07,23,08,30,15.90
2010,07,23,08,31,15.90
2010,07,23,08,32,15.90
2010,07,23,08,33,15.90
2010,07,23,08,34,16.00
2010,07,23,08,35,16.10
2010,07,23,08,36,16.10
2010,07,23,08,37,16.20
2010,07,23,08,38,16.30
2010,07,23,08,39,16.40
2010,07,23,08,40,16.50
2010,07,23,08,41,16.50
2010,07,23,08,42,16.60
2010,07,23,08,43,16.60
2010,07,23,08,44,16.50
2010,07,23,08,45,16.50
2010,07,23,08,46,16.40
2010,07,23,08,47,16.40
2010,07,23,08,48,16.30
2010,07,23,08,49,16.40
2010,07,23,08,50,16.30
2010,07,23,08,51,16.30
2010,07,23,08,52,16.20
2010,07,23,08,53,16.10
2010,07,23,08,54,16.10
2010,07,23,08,55,16.00
2010,07,23,08,56,16.00
2010,07,23,08,57,16.10
2010,07,23,08,58,16.10
2010,07,23,08,59,16.10
2010,07,23,09,00,16.20
2010,07,23,09,01,16.10
2010,07,23,09,02,16.00
2010,07,23,09,03,16.00
2010,07,23,09,04,15.90
2010,07,23,09,05,15.90
2010,07,23,09,06,16.00
2010,07,23,09,07,16.00
2010,07,23,09,08,16.10
2010,07,23,09,09,16.20
2010,07,23,09,10,16.30
2010,07,23,09,11,16.30
2010,07,23,09,12,16.40
2010,07,23,09,13,16.40
2010,07,23,09,14,16.40
2010,07,23,09,15,16.40
2010,07,23,09,16,16.40
2010,07,23,09,17,16.30
2010,07,23,09,18,16.30
2010,07,23,09,19,16.30
2010,07,23,09,20,16.40
2010,07,23,09,21,16.40
2010,07,23,09,22,16.40
2010,07,23,09,23,16.40
2010,07,23,09,24,16.50
2010,07,23,09,25,16.50
2010,07,23,09,26,16.60
2010,07,23,09,27,16.60
2010,07,23,09,28,16.70
2010,07,23,09,29,16.70
2010,07,23,09,30,16.60
2010,07,23,09,31,16.60
2010,07,23,09,32,16.60
2010,07,23,09,33,16.50
2010,07,23,09,34,16.50
2010,07,23,09,35,16.40
2010,07,23,09,36,16.40
2010,07,23,09,37,16.40
2010,07,23,09,38,16.40
2010,07,23,09,39,16.50
2010,07,23,09,40,16.50
2010,07,23,09,41,16.40
2010,07,23,09,42,16.40
2010,07,23,09,43,16.40
2010,07,23,09,44,16.40
2010,07,23,09,45,16.40
2010,07,23,09,46,16.40
2010,07,23,09,47,16.40
2010,07,23,09,48,16.30
2010,07,23,09,49,16.30
2010,07,23,09,50,16.30
2010,07,23,09,51,16.30
2010,07,23,09,52,16.30
2010,07,23,09,53,16.40
2010,07,23,09,54,16.40
2010,07,23,09,55,16.40
2010,07,23,09,56,16.40
2010,07,23,09,57,16.40
2010,07,23,09,58,16.40
2010,07,23,09,59,16.40
2010,07,23,10,00,16.50
2010,07,23,10,01,16.50
2010,07,23,10,02,16.50
2010,07,23,10,03,16.50
2010,07,23,10,04,16.50
2010,07,23,10,05,16.40
2010,07,23,10,06,16.40
2010,07,23,10,07,16.40
2010,07,23,10,08,16.40
2010,07,23,10,09,16.50
2010,07,23,10,10,16.50
2010,07,23,10,11,16.50
2010,07,23,10,12,16.50
2010,07,23,10,13,16.50
2010,07,23,10,14,16.50
2010,07,23,10,15,16.50
2010,07,23,10,16,16.50
2010,07,23,10,17,16.60
2010,07,23,10,18,16.60
2010,07,23,10,19,16.60
2010,07,23,10,20,16.60
2010,07,23,10,21,16.60
2010,07,23,10,22,16.60
2010,07,23,10,23,16.50
2010,07,23,10,24,16.50
2010,07,23,10,25,16.40
2010,07,23,10,26,16.50
2010,07,23,10,27,16.50
2010,07,23,10,28,16.60
2010,07,23,10,29,16.60
2010,07,23,10,30,16.70
2010,07,23,10,31,16.70
2010,07,23,10,32,16.70
2010,07,23,10,33,16.70
2010,07,23,10,34,16.80
2010,07,23,10,35,16.80
2010,07,23,10,36,16.80
2010,07,23,10,37,16.80
2010,07,23,10,38,16.80
2010,07,23,10,39,16.80
2010,07,23,10,40,16.80
2010,07,23,10,41,16.80
2010,07,23,10,42,16.80
2010,07,23,10,43,16.90
2010,07,23,10,44,16.90
2010,07,23,10,45,16.90
2010,07,23,10,46,16.90
2010,07,23,10,47,16.90
2010,07,23,10,48,16.80
2010,07,23,10,49,16.80
2010,07,23,10,50,16.80
2010,07,23,10,51,16.70
2010,07,23,10,52,16.70
2010,07,23,10,53,16.70
2010,07,23,10,54,16.70
2010,07,23,10,55,16.70
2010,07,23,10,56,16.70
2010,07,23,10,57,16.70
2010,07,23,10,58,16.80
2010,07,23,10,59,16.80
2010,07,23,11,00,16.80
2010,07,23,11,01,16.80
2010,07,23,11,02,16.80
2010,07,23,11,03,16.80
2010,07,23,11,04,16.80
2010,07,23,11,05,16.80
2010,07,23,11,06,16.90
2010,07,23,11,07,16.90
2010,07,23,11,08,16.90
2010,07,23,11,09,16.90
2010,07,23,11,10,16.90
2010,07,23,11,11,17.00
2010,07,23,11,12,17.00
2010,07,23,11,13,17.00
2010,07,23,11,14,16.90
2010,07,23,11,15,16.90
2010,07,23,11,16,16.90
2010,07,23,11,17,16.90
2010,07,23,11,18,16.90
2010,07,23,11,19,16.90
2010,07,23,11,20,16.90
2010,07,23,11,21,16.80
2010,07,23,11,22,16.90
2010,07,23,11,23,16.90
2010,07,23,11,24,16.90
2010,07,23,11,25,16.90
2010,07,23,11,26,17.00
2010,07,23,11,27,17.10
2010,07,23,11,28,17.10
2010,07,23,11,29,17.20
2010,07,23,11,30,17.30
2010,07,23,11,31,17.40
2010,07,23,11,32,17.40
2010,07,23,11,33,17.40
2010,07,23,11,34,17.40
2010,07,23,11,35,17.40
2010,07,23,11,36,17.50
2010,07,23,11,37,17.50
2010,07,23,11,38,17.50
2010,07,23,11,39,17.50
2010,07,23,11,40,17.50
2010,07,23,11,41,17.50
2010,07,23,11,42,17.50
2010,07,23,11,43,17.60
2010,07,23,11,44,17.60
2010,07,23,11,45,17.60
2010,07,23,11,46,17.70
2010,07,23,11,47,17.70
2010,07,23,11,48,17.70
2010,07,23,11,49,17.70
2010,07,23,11,50,17.80
2010,07,23,11,51,17.80
2010,07,23,11,52,17.90
2010,07,23,11,53,17.90
2010,07,23,11,54,17.90
2010,07,23,11,55,18.00
2010,07,23,11,56,18.10
2010,07,23,11,57,18.00
2010,07,23,11,58,18.00
2010,07,23,11,59,18.00
2010,07,23,12,00,18.00
2010,07,23,12,01,17.90
2010,07,23,12,02,17.90
2010,07,23,12,03,18.00
2010,07,23,12,04,18.00
2010,07,23,12,05,18.00
2010,07,23,12,06,18.10
2010,07,23,12,07,18.20
2010,07,23,12,08,18.20
2010,07,23,12,09,18.20
2010,07,23,12,10,18.30
2010,07,23,12,11,18.20
2010,07,23,12,12,18.30
2010,07,23,12,13,18.30
2010,07,23,12,14,18.30
2010,07,23,12,15,18.30
2010,07,23,12,16,18.30
2010,07,23,12,17,18.30
2010,07,23,12,18,18.40
2010,07,23,12,19,18.40
2010,07,23,12,20,18.40
2010,07,23,12,21,18.40
2010,07,23,12,22,18.30
2010,07,23,12,23,18.30
2010,07,23,12,24,18.30
2010,07,23,12,25,18.20
2010,07,23,12,26,18.20
2010,07,23,12,27,18.20
2010,07,23,12,28,18.20
2010,07,23,12,29,18.20
2010,07,23,12,30,18.20
2010,07,23,12,31,18.20
2010,07,23,12,32,18.20
2010,07,23,12,33,18.20
2010,07,23,12,34,18.20
2010,07,23,12,35,18.20
2010,07,23,12,36,18.20
2010,07,23,12,37,18.20
2010,07,23,12,38,18.20
2010,07,23,12,39,18.20
2010,07,23,12,40,18.20
2010,07,23,12,41,18.20
2010,07,23,12,42,18.20
2010,07,23,12,43,18.20
2010,07,23,12,44,18.20
2010,07,23,12,45,18.30
2010,07,23,12,46,18.30
2010,07,23,12,47,18.40
2010,07,23,12,48,18.40
2010,07,23,12,49,18.50
2010,07,23,12,50,18.50
2010,07,23,12,51,18.50
2010,07,23,12,52,18.60
2010,07,23,12,53,18.60
2010,07,23,12,54,18.60
2010,07,23,12,55,18.60
2010,07,23,12,56,18.60
2010,07,23,12,57,18.60
2010,07,23,12,58,18.60
2010,07,23,12,59,18.60
2010,07,23,13,00,18.60
2010,07,23,13,01,18.60
2010,07,23,13,02,18.70
2010,07,23,13,03,18.70
2010,07,23,13,04,18.80
2010,07,23,13,05,18.80
2010,07,23,13,06,18.90
2010,07,23,13,07,19.00
2010,07,23,13,08,19.10
2010,07,23,13,09,19.20
2010,07,23,13,10,19.30
2010,07,23,13,11,19.30
2010,07,23,13,12,19.30
2010,07,23,13,13,19.40
2010,07,23,13,14,19.40
2010,07,23,13,15,19.40
2010,07,23,13,16,19.40
2010,07,23,13,17,19.40
2010,07,23,13,18,19.40
2010,07,23,13,19,19.50
2010,07,23,13,20,19.50
2010,07,23,13,21,19.60
2010,07,23,13,22,19.70
2010,07,23,13,23,19.80
2010,07,23,13,24,19.90
2010,07,23,13,25,19.90
2010,07,23,13,26,19.90
2010,07,23,13,27,19.90
2010,07,23,13,28,19.90
2010,07,23,13,29,19.90
2010,07,23,13,30,19.90
2010,07,23,13,31,19.90
2010,07,23,13,32,19.90
2010,07,23,13,33,19.90
2010,07,23,13,34,19.90
2010,07,23,13,35,19.80
2010,07,23,13,36,19.80
2010,07,23,13,37,19.80
2010,07,23,13,38,19.80
2010,07,23,13,39,19.80
2010,07,23,13,40,19.90
2010,07,23,13,41,19.90
2010,07,23,13,42,20.00
2010,07,23,13,43,20.00
2010,07,23,13,44,20.00
2010,07,23,13,45,20.00
2010,07,23,13,46,20.00
2010,07,23,13,47,20.00
2010,07,23,13,48,20.00
2010,07,23,13,49,20.00
2010,07,23,13,50,20.10
2010,07,23,13,51,20.10
2010,07,23,13,52,20.10
2010,07,23,13,53,20.10
2010,07,23,13,54,20.10
2010,07,23,13,55,20.20
2010,07,23,13,56,20.20
2010,07,23,13,57,20.20
2010,07,23,13,58,20.20
2010,07,23,13,59,20.20
2010,07,23,14,00,20.20
2010,07,23,14,01,20.10
2010,07,23,14,02,20.10
2010,07,23,14,03,20.00
2010,07,23,14,04,20.00
2010,07,23,14,05,20.00
2010,07,23,14,06,20.10
2010,07,23,14,07,20.10
2010,07,23,14,08,20.20
2010,07,23,14,09,20.20
2010,07,23,14,10,20.30
2010,07,23,14,11,20.30
2010,07,23,14,12,20.40
2010,07,23,14,13,20.40
2010,07,23,14,14,20.50
2010,07,23,14,15,20.50
2010,07,23,14,16,20.50
2010,07,23,14,17,20.60
2010,07,23,14,18,20.50
2010,07,23,14,19,20.50
2010,07,23,14,20,20.50
2010,07,23,14,21,20.40
2010,07,23,14,22,20.40
2010,07,23,14,23,20.50
2010,07,23,14,24,20.60
2010,07,23,14,25,20.60
2010,07,23,14,26,20.50
2010,07,23,14,27,20.50
2010,07,23,14,28,20.60
2010,07,23,14,29,20.60
2010,07,23,14,30,20.70
2010,07,23,14,31,20.70
2010,07,23,14,32,20.70
2010,07,23,14,33,20.70
2010,07,23,14,34,20.70
2010,07,23,14,35,20.70
2010,07,23,14,36,20.70
2010,07,23,14,37,20.70
2010,07,23,14,38,20.70
2010,07,23,14,39,20.60
2010,07,23,14,40,20.60
2010,07,23,14,41,20.60
2010,07,23,14,42,20.60
2010,07,23,14,43,20.60
2010,07,23,14,44,20.60
2010,07,23,14,45,20.60
2010,07,23,14,46,20.60
2010,07,23,14,47,20.60
2010,07,23,14,48,20.60
2010,07,23,14,49,20.60
2010,07,23,14,50,20.60
2010,07,23,14,51,20.60
2010,07,23,14,52,20.70
2010,07,23,14,53,20.70
2010,07,23,14,54,20.70
2010,07,23,14,55,20.70
2010,07,23,14,56,20.70
2010,07,23,14,57,20.60
2010,07,23,14,58,20.60
2010,07,23,14,59,20.60
2010,07,23,15,00,20.60
2010,07,23,15,01,20.50
2010,07,23,15,02,20.50
2010,07,23,15,03,20.50
2010,07,23,15,04,20.50
2010,07,23,15,05,20.60
2010,07,23,15,06,20.60
2010,07,23,15,07,20.60
2010,07,23,15,08,20.70
2010,07,23,15,09,20.70
2010,07,23,15,10,20.70
2010,07,23,15,11,20.80
2010,07,23,15,12,20.80
2010,07,23,15,13,20.80
2010,07,23,15,14,20.80
2010,07,23,15,15,20.80
2010,07,23,15,16,20.70
2010,07,23,15,17,20.70
2010,07,23,15,18,20.70
2010,07,23,15,19,20.70
2010,07,23,15,20,20.80
2010,07,23,15,21,20.80
2010,07,23,15,22,20.80
2010,07,23,15,23,20.80
2010,07,23,15,24,20.80
2010,07,23,15,25,20.80
2010,07,23,15,26,20.80
2010,07,23,15,27,20.80
2010,07,23,15,28,20.80
2010,07,23,15,29,20.90
2010,07,23,15,30,20.90
2010,07,23,15,31,20.80
2010,07,23,15,32,20.80
2010,07,23,15,33,20.80
2010,07,23,15,34,20.90
2010,07,23,15,35,20.90
2010,07,23,15,36,20.90
2010,07,23,15,37,20.90
2010,07,23,15,38,20.90
2010,07,23,15,39,20.90
2010,07,23,15,40,20.90
2010,07,23,15,41,20.90
2010,07,23,15,42,20.90
2010,07,23,15,43,20.90
2010,07,23,15,44,20.90
2010,07,23,15,45,20.90
2010,07,23,15,46,20.90
2010,07,23,15,47,20.90
2010,07,23,15,48,20.90
2010,07,23,15,49,21.00
2010,07,23,15,50,21.00
2010,07,23,15,51,21.00
2010,07,23,15,52,21.00
2010,07,23,15,53,20.90
2010,07,23,15,54,20.90
2010,07,23,15,55,20.80
2010,07,23,15,56,20.80
2010,07,23,15,57,20.80
2010,07,23,15,58,20.80
2010,07,23,15,59,20.70
2010,07,23,16,00,20.80
2010,07,23,16,01,20.80
2010,07,23,16,02,20.80
2010,07,23,16,03,20.80
2010,07,23,16,04,20.80
2010,07,23,16,05,20.80
2010,07,23,16,06,20.70
2010,07,23,16,07,20.70
2010,07,23,16,08,20.80
2010,07,23,16,09,20.80
2010,07,23,16,10,20.80
2010,07,23,16,11,20.80
2010,07,23,16,12,20.90
2010,07,23,16,13,20.90
2010,07,23,16,14,20.90
2010,07,23,16,15,20.90
2010,07,23,16,16,20.90
2010,07,23,16,17,20.90
2010,07,23,16,18,21.00
2010,07,23,16,19,21.00
2010,07,23,16,20,21.00
2010,07,23,16,21,21.00
2010,07,23,16,22,21.10
2010,07,23,16,23,21.00
2010,07,23,16,24,21.00
2010,07,23,16,25,21.00
2010,07,23,16,26,21.10
2010,07,23,16,27,21.10
2010,07,23,16,28,21.10
2010,07,23,16,29,21.10
2010,07,23,16,30,21.10
2010,07,23,16,31,21.20
2010,07,23,16,32,21.20
2010,07,23,16,33,21.20
2010,07,23,16,34,21.20
2010,07,23,16,35,21.20
2010,07,23,16,36,21.30
2010,07,23,16,37,21.30
2010,07,23,16,38,21.40
2010,07,23,16,39,21.40
2010,07,23,16,40,21.40
2010,07,23,16,41,21.50
2010,07,23,16,42,21.50
2010,07,23,16,43,21.60
2010,07,23,16,44,21.70
2010,07,23,16,45,21.80
2010,07,23,16,46,21.80
2010,07,23,16,47,21.80
2010,07,23,16,48,21.90
2010,07,23,16,49,22.00
2010,07,23,16,50,22.10
2010,07,23,16,51,22.10
2010,07,23,16,52,22.10
2010,07,23,16,53,22.10
2010,07,23,16,54,22.10
2010,07,23,16,55,22.20
2010,07,23,16,56,22.20
2010,07,23,16,57,22.20
2010,07,23,16,58,22.20
2010,07,23,16,59,22.20
2010,07,23,17,00,22.30
2010,07,23,17,01,22.40
2010,07,23,17,02,22.50
2010,07,23,17,03,22.50
2010,07,23,17,04,22.60
2010,07,23,17,05,22.60
2010,07,23,17,06,22.70
2010,07,23,17,07,22.70
2010,07,23,17,08,22.70
2010,07,23,17,09,22.80
2010,07,23,17,10,22.80
2010,07,23,17,11,22.80
2010,07,23,17,12,22.80
2010,07,23,17,13,22.70
2010,07,23,17,14,22.60
2010,07,23,17,15,22.50
2010,07,23,17,16,22.40
2010,07,23,17,17,22.40
2010,07,23,17,18,22.30
2010,07,23,17,19,22.30